Terminal Aerodrome Forecast
Issued by NWS

Home | Current Version | Previous Version | Text Only | Print | Product List | Glossary On
Versions: 1 2 3 4 5 6 7 8 9 10 11 12 13 14 15 16 17 18
000
FTUS44 KLZK 271700 RRA
TAFPBF
TAF
KPBF 271751Z 2718/2818 15012KT P6SM FEW030 BKN100 BKN250
     FM280100 17004KT P6SM SCT250
     FM281000 15004KT P6SM BKN015=

USA.gov is the U.S. government's official web portal to all federal, state and local government web resources and services.